Location: El Azufral
(10.3513°N, 67.1528°W)
Time: 19:37:42
(UTC+00:00)

Delta 128 - Pass Details

Date: 13 June 2024
Orbit: 608 x 1210 km, 28.0° (Epoch: 24 July)

Event Time Altitude Azimuth Distance (km) Brightness Sun altitude
Rises 23:44:33 0° 232° (SW) 3,159 7.5 -12.8°
Reaches altitude 10° 23:46:52 10° 228° (SW) 2,315 6.8 -13.3°
Maximum altitude 23:52:18 58° 149° (SSE) 1,003 4.3 -14.5°
Drops below altitude 10° 23:58:46 10° 71° (ENE) 2,741 6.5 -15.9°
Enters shadow 23:58:56 - 71° (ENE) 2,798 6.5 -15.9°
